| time (UTC) | temp C | wind direction | speed KPH | gust KPH | rain 1hr cm | rain 24hr cm | rain mn cm | humidity % | barometer mb |
| 20260506232752 | 11 | 0.0 | 0.0 | 0.00 | 0.36 | 0.00 | 973.3 | ||
| 20260506231310 | 11 | 0.0 | 0.0 | 0.00 | 0.36 | 0.00 | 973.2 | ||
| 20260506224352 | 11 | 0.0 | 0.0 | 0.00 | 0.33 | 0.00 | 973.0 | ||
| 20260506213038 | 11 | 0.0 | 0.0 | 0.10 | 0.23 | 0.00 | 972.6 | ||
| 20260506204627 | 11 | 0.0 | 0.0 | 0.00 | 0.15 | 0.00 | 972.2 | ||
| 20260506203147 | 11 | 0.0 | 0.0 | 0.08 | 0.13 | 0.00 | 972.1 | ||
| 20260506201706 | 12 | 0.0 | 0.0 | 0.05 | 0.10 | 0.00 | 972.0 | ||
| 20260506193253 | 12 | 0.0 | 0.0 | 0.00 | 0.05 | 0.00 | 971.4 | ||
| 20260506191819 | 12 | 0.0 | 0.0 | 0.00 | 0.03 | 0.00 | 971.2 | ||
| 20260506184845 | 12 | 0.0 | 0.0 | 0.00 | 0.03 | 0.00 | 970.9 | ||
| 20260506180427 | 12 | 0.0 | 0.0 | 0.00 | 0.00 | 0.00 | 970.6 | ||
| 20260506170521 | 12 | 0.0 | 0.0 | 0.00 | 0.05 | 0.00 | 970.4 | ||
| 20260506163542 | 13 | 0.0 | 0.0 | 0.00 | 0.05 | 0.00 | 970.2 | ||
| 20260506162047 | 13 | 0.0 | 0.0 | 0.00 | 0.05 | 0.00 | 970.1 | ||
| 20260506153612 | 13 | 0.0 | 0.0 | 0.00 | 0.05 | 0.00 | 969.8 | ||
| 20260506150623 | 13 | 0.0 | 0.0 | 0.00 | 0.08 | 0.00 | 969.6 | ||
| 20260506145127 | 14 | 0.0 | 0.0 | 0.00 | 0.05 | 0.00 | 969.4 | ||
| 20260506140626 | 18 | 0.0 | 0.0 | 0.00 | 0.08 | 0.00 | 969.0 | ||
| 20260506133620 | 18 | 0.0 | 0.0 | 0.00 | 0.08 | 0.00 | 969.0 | ||
| 20260506132119 | 19 | 0.0 | 0.0 | 0.00 | 0.18 | 0.00 | 968.9 | ||
| 20260506130608 | 20 | 0.0 | 0.0 | 0.00 | 0.18 | 0.00 | 969.0 | ||
| 20260506123550 | 21 | 0.0 | 0.0 | 0.00 | 0.18 | 0.00 | 969.1 | ||
| 20260506122040 | 20 | 0.0 | 0.0 | 0.00 | 0.23 | 0.00 | 969.2 | ||
| 20260506120528 | 21 | 0.0 | 0.0 | 0.00 | 0.23 | 0.00 | 969.2 | ||
| 20260506111945 | 22 | 0.0 | 0.0 | 0.00 | 0.23 | 0.00 | 969.5 | ||
| 20260506103403 | 22 | 0.0 | 0.0 | 0.00 | 0.23 | 0.00 | 969.8 | ||
| 20260506100357 | 20 | 0.0 | 0.0 | 0.00 | 0.23 | 0.00 | 969.9 | ||
| 20260506091827 | 18 | 0.0 | 0.0 | 0.00 | 0.23 | 0.00 | 970.0 | ||
| 20260506090322 | 21 | 0.0 | 0.0 | 0.00 | 0.23 | 0.00 | 970.1 | ||
| 20260506084819 | 20 | 0.0 | 0.0 | 0.00 | 0.23 | 0.00 | 970.1 | ||
| 20260506083319 | 20 | 0.0 | 0.0 | 0.00 | 0.23 | 0.00 | 970.1 | ||
| 20260506081821 | 16 | 0.0 | 0.0 | 0.00 | 0.23 | 0.00 | 970.1 | ||
| 20260506080325 | 17 | 0.0 | 0.0 | 0.00 | 0.23 | 0.00 | 970.1 | ||
| 20260506073341 | 18 | 0.0 | 0.0 | 0.00 | 0.23 | 0.00 | 970.1 | ||
| 20260506062000 | 12 | 0.0 | 0.0 | 0.00 | 0.23 | 0.00 | 970.3 | ||
| 20260506060522 | 11 | 0.0 | 0.0 | 0.00 | 0.23 | 0.00 | 970.3 | ||
| 20260506043740 | 9 | 0.0 | 0.0 | 0.00 | 0.23 | 0.00 | 970.5 | ||
| 20260506042259 | 9 | 0.0 | 0.0 | 0.00 | 0.23 | 0.00 | 970.5 | ||
| 20260506040832 | 9 | 0.0 | 0.0 | 0.00 | 0.23 | 0.00 | 970.6 | ||
| 20260506033918 | 10 | 0.0 | 0.0 | 0.00 | 0.23 | 0.00 | 970.6 | ||
| 20260506032443 | 9 | 0.0 | 0.0 | 0.00 | 0.23 | 0.00 | 970.7 | ||
| 20260506025527 | 9 | 0.0 | 0.0 | 0.00 | 0.23 | 0.00 | 970.9 | ||
| 20260506022610 | 10 | 0.0 | 0.0 | 0.00 | 0.23 | 0.00 | 971.1 | ||
| 20260506021131 | 10 | 0.0 | 0.0 | 0.00 | 0.23 | 0.00 | 971.1 | ||
| 20260506014214 | 10 | 0.0 | 0.0 | 0.00 | 0.23 | 0.00 | 971.1 | ||
| 20260506011255 | 11 | 0.0 | 0.0 | 0.00 | 0.23 | 0.00 | 971.2 | ||
| 20260506005816 | 11 | 0.0 | 0.0 | 0.00 | 0.23 | 0.00 | 971.3 | ||
| 20260506004337 | 11 | 0.0 | 0.0 | 0.00 | 0.23 | 0.00 | 971.4 |